This demonstration page uses our WeatherBlox Daily Observations layout. Learn more.

38.88101, -77.10428

Hourly Observations for March 3, 2020

Temp ( °F °C ) Dew Point ( °F °C ) Humidity (%) Winds ( mph kmh ) Pressure ( in mb ) Visibility ( mi km ) Precip ( " mm )
12:52 am 00:52 Mostly Cloudy 51 10.6 47 8.3 86 86 Calm 29.84 1011 10 16.0934 0.001 0.001
1:52 am 01:52 Mostly Cloudy 49 9.4 45 7.2 86 86 S 6 9 29.84 1011 10 16.0934 0 0
2:52 am 02:52 Partly Cloudy 49 9.4 43 6.1 80 80 S 5 7 29.83 1010 10 16.0934 0 0
3:52 am 03:52 Mostly Clear 47 8.3 43 6.1 86 86 S 7 11 29.82 1010 10 16.0934 0 0
4:52 am 04:52 Mostly Clear 47 8.3 43 6.1 86 86 S 6 9 29.81 1010 10 16.0934 0 0
5:52 am 05:52 Partly Cloudy 47 8.3 43 6.1 86 86 SSW 5 7 29.79 1009 10 16.0934 0 0
6:52 am 06:52 Cloudy 46 7.8 42 5.6 86 86 SW 5 7 29.79 1009 10 16.0934 0 0
7:52 am 07:52 Cloudy 48 8.9 42 5.6 80 80 S 6 9 29.79 1009 10 16.0934 0 0
8:52 am 08:52 Cloudy 51 10.6 44 6.7 77 77 S 7 11 29.76 1008 10 16.0934 0 0
9:52 am 09:52 Cloudy 52 11.1 45 7.2 77 77 S 12 19 29.74 1007 10 16.0934 0 0
10:32 am 10:32 Cloudy with Light Rain 52 11.1 46 7.8 80 80 SSE 12 19 29.71 1006 10 16.0934 0.001 0.001
10:52 am 10:52 Cloudy 54 12.2 47 8.3 77 77 SSW 10 17 29.68 1005 10 16.0934 0.001 0.001
11:52 am 11:52 Cloudy with Light Rain 54 12.2 48 8.9 80 80 S 9 15 29.68 1005 10 16.0934 0.001 0.001
11:57 am 11:57 Cloudy with Light Rain 54 12.2 48 8.9 80 80 S 9 15 29.67 1005 2 3.21868 0.001 0.001
12:10 pm 12:10 Cloudy with Light Rain 52 11.1 49 9.4 89 89 S 14 22 29.66 1004 3 4.82802 0.02 0.508
12:29 pm 12:29 Cloudy with Mist and Fog 51 10.6 50 10 96 96 S 10 17 29.64 1004 5 8.0467 0.03 0.762
12:52 pm 12:52 Cloudy 52 11.1 51 10.6 97 97 S 13 20 29.6 1003 7 11.26538 0.03 0.762
1:52 pm 13:52 Cloudy 57 13.9 54 12.2 90 90 SSW 12 19 29.6 1002 10 16.0934 0 0
2:28 pm 14:28 Mostly Cloudy 60 15.6 54 12.2 80 80 SSW 9 15 29.59 1002 10 16.0934 0 0
2:42 pm 14:42 Mostly Cloudy 60 15.6 55 12.8 84 84 SSW 10 17 29.58 1002 10 16.0934 0 0
2:52 pm 14:52 Mostly Cloudy 61 16.1 55 12.8 81 81 S 13 20 29.57 1001 10 16.0934 0 0
3:52 pm 15:52 Mostly Cloudy 65 18.3 54 12.2 68 68 S 9 15 29.54 1000 10 16.0934 0 0
4:52 pm 16:52 Partly Cloudy 61 16.1 51 10.6 70 70 S 14 22 29.51 999 10 16.0934 0 0
5:52 pm 17:52 Partly Cloudy 61 16.1 51 10.6 70 70 SSW 15 24 29.5 999 10 16.0934 0 0
6:52 pm 18:52 Mostly Cloudy 61 16.1 52 11.1 72 72 SW 9 15 29.52 1000 10 16.0934 0 0
7:52 pm 19:52 Mostly Cloudy 58 14.4 53 11.7 84 84 SSW 8 13 29.54 1000 10 16.0934 0.02 0.508
8:52 pm 20:52 Mostly Cloudy 59 15 52 11.1 78 78 WSW 12 19 29.58 1002 10 16.0934 0 0
9:11 pm 21:11 Mostly Cloudy 60 15.6 49 9.4 67 67 WNW 41 67 29.63 1003 9 14.48406 0 0
9:13 pm 21:13 Mostly Cloudy with Light Rain 58 14.4 47 8.3 67 67 NW 36 57 29.64 1004 7 11.26538 0.001 0.001
9:16 pm 21:16 Mostly Cloudy with Rain 56 13.3 47 8.3 72 72 WNW 23 37 29.64 1004 5 8.0467 0.001 0.001
9:24 pm 21:24 Cloudy with Light Rain 56 13.3 47 8.3 72 72 WNW 18 30 29.65 1004 8 12.87472 0.02 0.508
9:52 pm 21:52 Cloudy 57 13.9 41 5 55 55 NW 25 41 29.64 1004 10 16.0934 0.02 0.508
10:52 pm 22:52 Partly Cloudy 56 13.3 36 2.2 47 47 VRB 6 9 29.68 1005 10 16.0934 0 0
11:52 pm 23:52 Cloudy with Light Rain 55 12.8 36 2.2 49 49 W 7 11 29.72 1007 10 16.0934 0.001 0.001

Powered by AerisWeather